Time,TemperatureF,DewpointF,PressureIn,WindDirection,WindDirectionDegrees,WindSpeedMPH,WindSpeedGustMPH,Humidity,HourlyPrecipIn,Conditions,Clouds,dailyrainin,SolarRadiationWatts/m^2,SoftwareType,DateUTC
2013-04-12 00:00:00,60.7,57.1,29.62,SSW,198,2.0,2.0,88,0.00,,,0.00,0,Wunderground v.1.15,2013-04-12 04:00:00,
2013-04-12 00:02:00,60.7,57.4,29.61,SSW,198,3.0,3.0,89,0.00,,,0.00,0,Wunderground v.1.15,2013-04-12 04:02:00,
2013-04-12 00:04:00,60.6,57.3,29.61,SSW,198,2.0,3.0,89,0.00,,,0.00,0,Wunderground v.1.15,2013-04-12 04:04:00,
2013-04-12 00:10:00,60.4,57.1,29.59,ESE,108,0.0,1.0,89,0.00,,,0.00,0,Wunderground v.1.15,2013-04-12 04:10:00,
2013-04-12 00:12:00,60.3,57.0,29.59,ESE,108,1.0,1.0,89,0.00,,,0.00,0,Wunderground v.1.15,2013-04-12 04:12:00,
2013-04-12 00:19:00,60.2,56.9,29.61,ESE,108,1.0,1.0,89,0.00,,,0.00,0,Wunderground v.1.15,2013-04-12 04:19:00,
2013-04-12 00:24:00,60.2,57.3,29.61,ESE,109,2.0,2.0,90,0.00,,,0.00,0,Wunderground v.1.15,2013-04-12 04:24:00,
2013-04-12 00:30:00,60.1,57.2,29.60,ESE,110,0.0,0.0,90,0.00,,,0.00,0,Wunderground v.1.15,2013-04-12 04:30:00,
2013-04-12 00:35:00,60.1,57.2,29.60,SE,132,2.0,3.0,90,0.00,,,0.00,0,Wunderground v.1.15,2013-04-12 04:35:00,
2013-04-12 00:40:00,60.0,57.1,29.58,SE,141,1.0,2.0,90,0.00,,,0.00,0,Wunderground v.1.15,2013-04-12 04:40:00,
2013-04-12 00:45:00,60.0,57.1,29.56,East,95,2.0,4.0,90,0.00,,,0.00,0,Wunderground v.1.15,2013-04-12 04:45:00,
2013-04-12 00:52:00,59.8,57.2,29.55,ENE,75,3.0,3.0,91,0.00,,,0.00,0,Wunderground v.1.15,2013-04-12 04:52:00,
2013-04-12 00:58:00,59.8,57.2,29.55,East,94,2.0,2.0,91,0.00,,,0.00,0,Wunderground v.1.15,2013-04-12 04:58:00,
2013-04-12 01:04:00,59.7,57.4,29.55,East,89,1.0,2.0,92,0.00,,,0.00,0,Wunderground v.1.15,2013-04-12 05:04:00,
2013-04-12 01:10:00,59.7,57.4,29.55,East,90,0.0,1.0,92,0.00,,,0.00,0,Wunderground v.1.15,2013-04-12 05:10:00,
2013-04-12 01:15:00,59.7,57.4,29.53,East,93,0.0,1.0,92,0.00,,,0.00,0,Wunderground v.1.15,2013-04-12 05:15:00,
2013-04-12 01:21:00,59.9,57.3,29.55,East,93,0.0,2.0,91,0.00,,,0.00,0,Wunderground v.1.15,2013-04-12 05:21:00,
2013-04-12 01:26:00,59.9,57.3,29.54,East,93,4.0,4.0,91,0.00,,,0.00,0,Wunderground v.1.15,2013-04-12 05:26:00,
2013-04-12 01:32:00,59.9,57.3,29.55,East,94,0.0,2.0,91,0.00,,,0.00,0,Wunderground v.1.15,2013-04-12 05:32:00,
2013-04-12 01:37:00,59.9,57.3,29.54,East,94,0.0,3.0,91,0.00,,,0.00,0,Wunderground v.1.15,2013-04-12 05:37:00,
2013-04-12 01:43:00,60.0,57.4,29.54,East,94,0.0,0.0,91,0.00,,,0.00,0,Wunderground v.1.15,2013-04-12 05:43:00,
2013-04-12 01:49:00,59.9,57.3,29.54,East,93,2.0,2.0,91,0.00,,,0.00,0,Wunderground v.1.15,2013-04-12 05:49:00,
2013-04-12 01:54:00,59.9,57.3,29.55,East,94,0.0,2.0,91,0.00,,,0.00,0,Wunderground v.1.15,2013-04-12 05:54:00,
2013-04-12 02:00:00,60.0,57.4,29.55,East,93,2.0,2.0,91,0.00,,,0.00,0,Wunderground v.1.15,2013-04-12 06:00:00,
2013-04-12 02:05:00,60.0,57.7,29.55,East,94,1.0,2.0,92,0.00,,,0.00,0,Wunderground v.1.15,2013-04-12 06:05:00,
2013-04-12 02:10:00,59.9,57.9,29.55,East,94,0.0,1.0,93,0.00,,,0.00,0,Wunderground v.1.15,2013-04-12 06:10:00,
2013-04-12 02:15:00,59.7,57.7,29.55,East,94,2.0,2.0,93,0.00,,,0.00,0,Wunderground v.1.15,2013-04-12 06:15:00,
2013-04-12 02:20:00,59.6,57.6,29.54,East,94,0.0,1.0,93,0.00,,,0.00,0,Wunderground v.1.15,2013-04-12 06:20:00,
2013-04-12 02:25:00,59.5,57.5,29.52,East,94,2.0,2.0,93,0.00,,,0.00,0,Wunderground v.1.15,2013-04-12 06:25:00,
2013-04-12 02:30:00,59.5,57.5,29.53,East,94,0.0,2.0,93,0.00,,,0.00,0,Wunderground v.1.15,2013-04-12 06:30:00,
2013-04-12 02:35:00,59.5,57.8,29.54,East,94,1.0,4.0,94,0.00,,,0.00,0,Wunderground v.1.15,2013-04-12 06:35:00,
2013-04-12 02:40:00,59.5,57.8,29.54,East,94,0.0,0.0,94,0.00,,,0.00,0,Wunderground v.1.15,2013-04-12 06:40:00,
2013-04-12 02:45:00,59.5,57.8,29.54,East,94,0.0,1.0,94,0.00,,,0.00,0,Wunderground v.1.15,2013-04-12 06:45:00,
2013-04-12 02:50:00,59.5,57.8,29.54,East,93,0.0,0.0,94,0.00,,,0.00,0,Wunderground v.1.15,2013-04-12 06:50:00,
2013-04-12 02:55:00,59.3,57.6,29.52,East,93,1.0,2.0,94,0.00,,,0.00,0,Wunderground v.1.15,2013-04-12 06:55:00,
2013-04-12 03:01:00,59.3,57.9,29.52,East,94,1.0,2.0,95,0.00,,,0.00,0,Wunderground v.1.15,2013-04-12 07:01:00,
2013-04-12 03:06:00,59.3,57.9,29.51,East,93,1.0,2.0,95,0.00,,,0.00,0,Wunderground v.1.15,2013-04-12 07:06:00,
2013-04-12 03:11:00,59.4,58.0,29.51,East,94,0.0,1.0,95,0.00,,,0.00,0,Wunderground v.1.15,2013-04-12 07:11:00,
2013-04-12 03:17:00,59.4,58.0,29.51,East,94,0.0,1.0,95,0.00,,,0.00,0,Wunderground v.1.15,2013-04-12 07:17:00,
2013-04-12 03:22:00,59.4,58.0,29.51,East,93,3.0,3.0,95,0.00,,,0.00,0,Wunderground v.1.15,2013-04-12 07:22:00,
2013-04-12 03:27:00,59.5,57.8,29.52,East,93,1.0,3.0,94,0.00,,,0.00,0,Wunderground v.1.15,2013-04-12 07:27:00,
2013-04-12 03:32:00,59.4,57.7,29.51,East,94,0.0,0.0,94,0.00,,,0.00,0,Wunderground v.1.15,2013-04-12 07:32:00,
2013-04-12 03:37:00,59.5,58.1,29.52,East,94,0.0,0.0,95,0.00,,,0.00,0,Wunderground v.1.15,2013-04-12 07:37:00,
2013-04-12 03:42:00,59.6,57.9,29.50,East,94,0.0,1.0,94,0.00,,,0.00,0,Wunderground v.1.15,2013-04-12 07:42:00,
2013-04-12 03:48:00,59.7,58.0,29.51,East,94,0.0,1.0,94,0.00,,,0.00,0,Wunderground v.1.15,2013-04-12 07:48:00,
2013-04-12 03:53:00,59.8,57.8,29.51,East,94,1.0,1.0,93,0.00,,,0.00,0,Wunderground v.1.15,2013-04-12 07:53:00,
2013-04-12 03:58:00,59.8,57.8,29.50,East,94,0.0,1.0,93,0.00,,,0.00,0,Wunderground v.1.15,2013-04-12 07:58:00,
2013-04-12 04:03:00,59.8,57.5,29.50,East,93,0.0,1.0,92,0.00,,,0.00,0,Wunderground v.1.15,2013-04-12 08:03:00,
2013-04-12 04:08:00,59.8,57.8,29.51,East,93,0.0,2.0,93,0.00,,,0.00,0,Wunderground v.1.15,2013-04-12 08:08:00,
2013-04-12 04:13:00,59.9,57.9,29.50,East,94,2.0,3.0,93,0.00,,,0.00,0,Wunderground v.1.15,2013-04-12 08:13:00,
2013-04-12 04:18:00,60.1,57.8,29.50,East,93,0.0,3.0,92,0.00,,,0.00,0,Wunderground v.1.15,2013-04-12 08:18:00,
2013-04-12 04:23:00,60.2,57.9,29.50,East,93,0.0,4.0,92,0.00,,,0.00,0,Wunderground v.1.15,2013-04-12 08:23:00,
2013-04-12 04:28:00,60.3,57.7,29.50,East,94,0.0,0.0,91,0.00,,,0.00,0,Wunderground v.1.15,2013-04-12 08:28:00,
2013-04-12 04:33:00,60.4,57.8,29.49,East,94,1.0,4.0,91,0.00,,,0.00,0,Wunderground v.1.15,2013-04-12 08:33:00,
2013-04-12 04:38:00,60.4,57.8,29.49,East,94,0.0,0.0,91,0.00,,,0.00,0,Wunderground v.1.15,2013-04-12 08:38:00,
2013-04-12 04:43:00,60.5,57.9,29.49,SE,131,1.0,4.0,91,0.00,,,0.00,0,Wunderground v.1.15,2013-04-12 08:43:00,
2013-04-12 04:49:00,60.6,57.7,29.49,SE,134,0.0,0.0,90,0.00,,,0.00,0,Wunderground v.1.15,2013-04-12 08:49:00,
2013-04-12 04:54:00,60.6,58.0,29.49,SE,134,1.0,3.0,91,0.00,,,0.00,0,Wunderground v.1.15,2013-04-12 08:54:00,
2013-04-12 04:59:00,60.6,58.0,29.49,SE,134,0.0,0.0,91,0.00,,,0.00,0,Wunderground v.1.15,2013-04-12 08:59:00,
2013-04-12 05:05:00,60.5,57.9,29.50,SE,134,1.0,3.0,91,0.00,,,0.00,0,Wunderground v.1.15,2013-04-12 09:05:00,
2013-04-12 05:10:00,60.7,58.4,29.51,WNW,285,5.0,5.0,92,0.00,,,0.00,0,Wunderground v.1.15,2013-04-12 09:10:00,
2013-04-12 05:16:00,60.3,58.0,29.52,SW,233,0.0,6.0,92,0.00,,,0.00,0,Wunderground v.1.15,2013-04-12 09:16:00,
2013-04-12 05:21:00,60.3,58.0,29.52,SW,235,0.0,1.0,92,0.00,,,0.00,0,Wunderground v.1.15,2013-04-12 09:21:00,
2013-04-12 05:26:00,60.3,58.0,29.51,SSW,196,2.0,3.0,92,0.00,,,0.00,0,Wunderground v.1.15,2013-04-12 09:26:00,
2013-04-12 05:31:00,60.3,58.3,29.52,SSE,166,2.0,4.0,93,0.00,,,0.00,0,Wunderground v.1.15,2013-04-12 09:31:00,
2013-04-12 05:36:00,60.4,58.4,29.52,SSE,156,1.0,5.0,93,0.00,,,0.00,0,Wunderground v.1.15,2013-04-12 09:36:00,
2013-04-12 05:41:00,60.5,58.2,29.53,SSE,149,5.0,5.0,92,0.00,,,0.00,0,Wunderground v.1.15,2013-04-12 09:41:00,
2013-04-12 05:46:00,60.7,58.4,29.54,West,279,0.0,7.0,92,0.00,,,0.00,0,Wunderground v.1.15,2013-04-12 09:46:00,
2013-04-12 05:51:00,60.7,58.4,29.54,SSE,159,6.0,6.0,92,0.00,,,0.00,0,Wunderground v.1.15,2013-04-12 09:51:00,
2013-04-12 05:56:00,60.8,58.2,29.55,WNW,287,6.0,12.0,91,0.00,,,0.00,0,Wunderground v.1.15,2013-04-12 09:56:00,
2013-04-12 06:01:00,60.6,58.0,29.56,WNW,288,5.0,9.0,91,0.00,,,0.00,0,Wunderground v.1.15,2013-04-12 10:01:00,
2013-04-12 06:06:00,60.4,57.8,29.56,WNW,295,2.0,11.0,91,0.00,,,0.00,0,Wunderground v.1.15,2013-04-12 10:06:00,
2013-04-12 06:11:00,59.7,57.1,29.56,WNW,289,4.0,10.0,91,0.00,,,0.00,0,Wunderground v.1.15,2013-04-12 10:11:00,
2013-04-12 06:16:00,59.1,56.5,29.55,West,270,3.0,12.0,91,0.00,,,0.00,0,Wunderground v.1.15,2013-04-12 10:16:00,
2013-04-12 06:21:00,58.9,56.3,29.57,East,95,1.0,3.0,91,0.00,,,0.00,0,Wunderground v.1.15,2013-04-12 10:21:00,
2013-04-12 06:26:00,58.8,56.2,29.59,SE,140,1.0,4.0,91,0.00,,,0.00,0,Wunderground v.1.15,2013-04-12 10:26:00,
2013-04-12 06:31:00,58.7,55.8,29.59,South,173,3.0,4.0,90,0.00,,,0.00,0,Wunderground v.1.15,2013-04-12 10:31:00,
2013-04-12 06:37:00,58.5,55.0,29.59,East,91,3.0,5.0,88,0.00,,,0.00,0,Wunderground v.1.15,2013-04-12 10:37:00,
2013-04-12 06:42:00,58.2,54.3,29.60,SSE,159,2.0,14.0,87,0.00,,,0.00,0,Wunderground v.1.15,2013-04-12 10:42:00,
2013-04-12 06:47:00,57.9,53.7,29.61,WNW,295,1.0,14.0,86,0.00,,,0.00,0,Wunderground v.1.15,2013-04-12 10:47:00,
2013-04-12 06:53:00,57.6,53.1,29.61,WNW,286,7.0,9.0,85,0.00,,,0.00,0,Wunderground v.1.15,2013-04-12 10:53:00,
2013-04-12 06:58:00,57.4,53.6,29.61,WNW,283,5.0,13.0,87,0.00,,,0.00,0,Wunderground v.1.15,2013-04-12 10:58:00,
2013-04-12 07:03:00,57.0,53.5,29.62,WNW,285,2.0,10.0,88,0.00,,,0.00,0,Wunderground v.1.15,2013-04-12 11:03:00,
2013-04-12 07:08:00,56.9,53.7,29.62,WNW,284,2.0,10.0,89,0.00,,,0.00,0,Wunderground v.1.15,2013-04-12 11:08:00,
2013-04-12 07:13:00,56.7,53.2,29.63,WNW,282,2.0,5.0,88,0.00,,,0.00,0,Wunderground v.1.15,2013-04-12 11:13:00,
2013-04-12 07:18:00,56.6,52.8,29.63,WNW,286,9.0,11.0,87,0.00,,,0.00,0,Wunderground v.1.15,2013-04-12 11:18:00,
2013-04-12 07:23:00,56.4,52.3,29.63,SE,128,2.0,9.0,86,0.00,,,0.00,0,Wunderground v.1.15,2013-04-12 11:23:00,
2013-04-12 07:28:00,56.3,52.2,29.64,WNW,283,1.0,19.0,86,0.00,,,0.00,0,Wunderground v.1.15,2013-04-12 11:28:00,
2013-04-12 07:33:00,56.2,51.7,29.65,SW,230,4.0,6.0,85,0.00,,,0.00,0,Wunderground v.1.15,2013-04-12 11:33:00,
2013-04-12 07:38:00,56.1,51.3,29.64,West,279,3.0,11.0,84,0.00,,,0.00,0,Wunderground v.1.15,2013-04-12 11:38:00,
2013-04-12 07:43:00,55.9,50.5,29.65,West,267,2.0,12.0,82,0.00,,,0.00,0,Wunderground v.1.15,2013-04-12 11:43:00,
2013-04-12 07:48:00,55.8,50.7,29.65,SSE,153,5.0,12.0,83,0.00,,,0.00,0,Wunderground v.1.15,2013-04-12 11:48:00,
2013-04-12 07:53:00,55.7,50.3,29.66,West,276,4.0,9.0,82,0.00,,,0.00,0,Wunderground v.1.15,2013-04-12 11:53:00,
2013-04-12 07:58:00,55.6,50.2,29.67,West,259,2.0,9.0,82,0.00,,,0.00,0,Wunderground v.1.15,2013-04-12 11:58:00,
2013-04-12 08:03:00,55.6,49.9,29.67,SE,146,2.0,6.0,81,0.00,,,0.00,0,Wunderground v.1.15,2013-04-12 12:03:00,
2013-04-12 08:08:00,55.6,50.2,29.67,WNW,291,1.0,6.0,82,0.00,,,0.00,0,Wunderground v.1.15,2013-04-12 12:08:00,
2013-04-12 08:13:00,55.6,49.9,29.67,SSW,206,3.0,7.0,81,0.00,,,0.00,0,Wunderground v.1.15,2013-04-12 12:13:00,
2013-04-12 08:18:00,55.5,49.1,29.67,SSW,205,4.0,22.0,79,0.00,,,0.00,0,Wunderground v.1.15,2013-04-12 12:18:00,
2013-04-12 08:23:00,55.5,49.1,29.68,WNW,283,7.0,11.0,79,0.00,,,0.00,0,Wunderground v.1.15,2013-04-12 12:23:00,
2013-04-12 08:28:00,55.4,48.7,29.68,West,266,4.0,14.0,78,0.00,,,0.00,0,Wunderground v.1.15,2013-04-12 12:28:00,
2013-04-12 08:33:00,55.3,48.2,29.69,WNW,282,4.0,15.0,77,0.00,,,0.00,0,Wunderground v.1.15,2013-04-12 12:33:00,
2013-04-12 08:38:00,55.1,48.0,29.69,WNW,284,7.0,15.0,77,0.00,,,0.00,0,Wunderground v.1.15,2013-04-12 12:38:00,
2013-04-12 08:43:00,55.1,48.4,29.69,South,184,1.0,15.0,78,0.00,,,0.00,0,Wunderground v.1.15,2013-04-12 12:43:00,
2013-04-12 08:48:00,54.9,47.5,29.69,West,261,6.0,6.0,76,0.00,,,0.00,0,Wunderground v.1.15,2013-04-12 12:48:00,
2013-04-12 08:54:00,54.8,47.0,29.70,WSW,238,2.0,14.0,75,0.00,,,0.00,0,Wunderground v.1.15,2013-04-12 12:54:00,
2013-04-12 08:59:00,54.8,47.0,29.71,SSE,162,3.0,4.0,75,0.00,,,0.00,0,Wunderground v.1.15,2013-04-12 12:59:00,
2013-04-12 09:04:00,54.5,46.4,29.71,WNW,282,7.0,14.0,74,0.00,,,0.00,0,Wunderground v.1.15,2013-04-12 13:04:00,
2013-04-12 09:09:00,54.2,46.4,29.71,WNW,299,3.0,5.0,75,0.00,,,0.00,0,Wunderground v.1.15,2013-04-12 13:09:00,
2013-04-12 09:14:00,53.9,46.5,29.71,WNW,285,11.0,11.0,76,0.00,,,0.00,0,Wunderground v.1.15,2013-04-12 13:14:00,
2013-04-12 09:20:00,53.3,45.2,29.72,West,271,4.0,12.0,74,0.00,,,0.00,0,Wunderground v.1.15,2013-04-12 13:20:00,
2013-04-12 09:25:00,52.9,45.2,29.72,West,267,7.0,17.0,75,0.00,,,0.00,0,Wunderground v.1.15,2013-04-12 13:25:00,
2013-04-12 09:30:00,52.8,44.7,29.72,WNW,282,7.0,10.0,74,0.00,,,0.00,0,Wunderground v.1.15,2013-04-12 13:30:00,
2013-04-12 09:35:00,52.8,44.7,29.72,WNW,291,1.0,10.0,74,0.00,,,0.00,0,Wunderground v.1.15,2013-04-12 13:35:00,
2013-04-12 09:40:00,53.4,45.3,29.73,WSW,240,2.0,3.0,74,0.00,,,0.00,0,Wunderground v.1.15,2013-04-12 13:40:00,
2013-04-12 09:45:00,54.2,44.6,29.72,West,281,1.0,7.0,70,0.00,,,0.00,0,Wunderground v.1.15,2013-04-12 13:45:00,
2013-04-12 09:50:00,54.5,45.3,29.73,SSE,161,3.0,3.0,71,0.00,,,0.00,0,Wunderground v.1.15,2013-04-12 13:50:00,
2013-04-12 09:55:00,54.4,44.8,29.73,SSW,209,5.0,6.0,70,0.00,,,0.00,0,Wunderground v.1.15,2013-04-12 13:55:00,
2013-04-12 10:01:00,54.8,44.8,29.74,South,170,4.0,4.0,69,0.00,,,0.00,0,Wunderground v.1.15,2013-04-12 14:01:00,
2013-04-12 10:06:00,54.8,43.7,29.74,WNW,284,4.0,5.0,66,0.00,,,0.00,0,Wunderground v.1.15,2013-04-12 14:06:00,
2013-04-12 10:12:00,55.2,42.8,29.74,West,274,2.0,8.0,63,0.00,,,0.00,0,Wunderground v.1.15,2013-04-12 14:12:00,
2013-04-12 10:18:00,56.0,42.3,29.74,West,280,7.0,11.0,60,0.00,,,0.00,0,Wunderground v.1.15,2013-04-12 14:18:00,
2013-04-12 10:23:00,53.9,41.2,29.75,WNW,282,4.0,16.0,62,0.00,,,0.00,0,Wunderground v.1.15,2013-04-12 14:23:00,
2013-04-12 10:28:00,53.4,41.5,29.75,WNW,283,9.0,16.0,64,0.00,,,0.00,0,Wunderground v.1.15,2013-04-12 14:28:00,
2013-04-12 10:33:00,53.1,40.8,29.75,West,270,3.0,12.0,63,0.00,,,0.00,0,Wunderground v.1.15,2013-04-12 14:33:00,
2013-04-12 10:38:00,53.6,40.5,29.75,WSW,244,2.0,12.0,61,0.00,,,0.00,0,Wunderground v.1.15,2013-04-12 14:38:00,
2013-04-12 10:43:00,54.1,40.5,29.75,West,280,6.0,16.0,60,0.00,,,0.00,0,Wunderground v.1.15,2013-04-12 14:43:00,
2013-04-12 10:48:00,55.3,40.3,29.75,WNW,284,2.0,16.0,57,0.00,,,0.00,0,Wunderground v.1.15,2013-04-12 14:48:00,
2013-04-12 10:53:00,56.0,40.5,29.76,SSE,164,5.0,15.0,56,0.00,,,0.00,0,Wunderground v.1.15,2013-04-12 14:53:00,
2013-04-12 10:58:00,56.6,42.4,29.76,SSE,161,2.0,15.0,59,0.00,,,0.00,0,Wunderground v.1.15,2013-04-12 14:58:00,
2013-04-12 11:03:00,57.6,42.0,29.76,WSW,246,1.0,9.0,56,0.00,,,0.00,0,Wunderground v.1.15,2013-04-12 15:03:00,
2013-04-12 11:08:00,57.6,41.1,29.76,SW,228,2.0,9.0,54,0.00,,,0.00,0,Wunderground v.1.15,2013-04-12 15:08:00,
2013-04-12 11:13:00,56.9,38.4,29.76,West,271,3.0,12.0,50,0.00,,,0.00,0,Wunderground v.1.15,2013-04-12 15:13:00,
2013-04-12 11:18:00,56.7,39.3,29.76,WSW,253,4.0,12.0,52,0.00,,,0.00,0,Wunderground v.1.15,2013-04-12 15:18:00,
2013-04-12 11:23:00,57.2,40.2,29.76,WSW,243,3.0,9.0,53,0.00,,,0.00,0,Wunderground v.1.15,2013-04-12 15:23:00,
2013-04-12 11:28:00,57.5,40.0,29.76,WSW,256,2.0,10.0,52,0.00,,,0.00,0,Wunderground v.1.15,2013-04-12 15:28:00,
2013-04-12 11:33:00,58.2,41.1,29.76,West,281,2.0,10.0,53,0.00,,,0.00,0,Wunderground v.1.15,2013-04-12 15:33:00,
2013-04-12 11:38:00,58.6,41.0,29.76,WNW,300,1.0,10.0,52,0.00,,,0.00,0,Wunderground v.1.15,2013-04-12 15:38:00,
2013-04-12 11:43:00,57.8,39.8,29.76,WNW,285,8.0,13.0,51,0.00,,,0.00,0,Wunderground v.1.15,2013-04-12 15:43:00,
2013-04-12 11:48:00,58.3,38.7,29.76,WNW,290,9.0,13.0,48,0.00,,,0.00,0,Wunderground v.1.15,2013-04-12 15:48:00,
2013-04-12 11:53:00,58.0,39.5,29.76,WNW,287,2.0,11.0,50,0.00,,,0.00,0,Wunderground v.1.15,2013-04-12 15:53:00,
2013-04-12 11:58:00,59.4,41.3,29.77,SSE,165,4.0,11.0,51,0.00,,,0.00,0,Wunderground v.1.15,2013-04-12 15:58:00,
2013-04-12 12:03:00,60.4,40.1,29.77,West,273,4.0,11.0,47,0.00,,,0.00,0,Wunderground v.1.15,2013-04-12 16:03:00,
2013-04-12 12:08:00,60.6,41.3,29.77,SSW,195,3.0,3.0,49,0.00,,,0.00,0,Wunderground v.1.15,2013-04-12 16:08:00,
2013-04-12 12:13:00,61.3,40.9,29.77,WNW,296,1.0,10.0,47,0.00,,,0.00,0,Wunderground v.1.15,2013-04-12 16:13:00,
2013-04-12 12:20:00,60.3,41.0,29.77,West,277,4.0,4.0,49,0.00,,,0.00,0,Wunderground v.1.15,2013-04-12 16:20:00,
2013-04-12 12:25:00,59.9,40.1,29.77,West,275,2.0,14.0,48,0.00,,,0.00,0,Wunderground v.1.15,2013-04-12 16:25:00,
2013-04-12 12:30:00,59.7,41.0,29.77,WSW,240,2.0,7.0,50,0.00,,,0.00,0,Wunderground v.1.15,2013-04-12 16:30:00,
2013-04-12 12:35:00,59.7,38.9,29.77,West,279,13.0,13.0,46,0.00,,,0.00,0,Wunderground v.1.15,2013-04-12 16:35:00,
2013-04-12 12:41:00,59.3,39.6,29.77,WNW,288,8.0,8.0,48,0.00,,,0.00,0,Wunderground v.1.15,2013-04-12 16:41:00,
2013-04-12 12:46:00,58.7,39.0,29.77,WNW,286,7.0,13.0,48,0.00,,,0.00,0,Wunderground v.1.15,2013-04-12 16:46:00,
2013-04-12 12:51:00,58.9,38.1,29.77,WNW,285,7.0,8.0,46,0.00,,,0.00,0,Wunderground v.1.15,2013-04-12 16:51:00,
2013-04-12 12:56:00,59.8,40.6,29.77,WNW,286,9.0,11.0,49,0.00,,,0.00,0,Wunderground v.1.15,2013-04-12 16:56:00,
2013-04-12 13:02:00,60.9,39.4,29.77,WNW,292,6.0,7.0,45,0.00,,,0.00,0,Wunderground v.1.15,2013-04-12 17:02:00,
2013-04-12 13:07:00,58.3,39.7,29.76,West,264,4.0,12.0,50,0.00,,,0.00,0,Wunderground v.1.15,2013-04-12 17:07:00,
2013-04-12 13:12:00,58.3,38.7,29.76,WNW,285,5.0,10.0,48,0.00,,,0.00,0,Wunderground v.1.15,2013-04-12 17:12:00,
2013-04-12 13:17:00,59.2,41.1,29.76,WNW,287,6.0,10.0,51,0.00,,,0.00,0,Wunderground v.1.15,2013-04-12 17:17:00,
2013-04-12 13:22:00,59.3,40.7,29.76,WNW,293,4.0,13.0,50,0.00,,,0.00,0,Wunderground v.1.15,2013-04-12 17:22:00,
2013-04-12 13:27:00,60.4,41.1,29.76,West,279,11.0,15.0,49,0.00,,,0.00,0,Wunderground v.1.15,2013-04-12 17:27:00,
2013-04-12 13:32:00,59.9,39.6,29.76,West,280,9.0,11.0,47,0.00,,,0.00,0,Wunderground v.1.15,2013-04-12 17:32:00,
2013-04-12 13:37:00,58.9,40.3,29.76,WNW,285,5.0,12.0,50,0.00,,,0.00,0,Wunderground v.1.15,2013-04-12 17:37:00,
2013-04-12 13:42:00,58.9,39.2,29.77,WNW,287,12.0,12.0,48,0.00,,,0.00,0,Wunderground v.1.15,2013-04-12 17:42:00,
2013-04-12 13:47:00,58.5,40.4,29.77,WNW,284,13.0,15.0,51,0.00,,,0.00,0,Wunderground v.1.15,2013-04-12 17:47:00,
2013-04-12 13:52:00,58.0,38.9,29.77,WNW,287,8.0,12.0,49,0.00,,,0.00,0,Wunderground v.1.15,2013-04-12 17:52:00,
2013-04-12 13:57:00,58.1,41.5,29.77,WNW,285,10.0,14.0,54,0.00,,,0.00,0,Wunderground v.1.15,2013-04-12 17:57:00,
2013-04-12 14:02:00,58.3,40.2,29.77,WNW,289,7.0,16.0,51,0.00,,,0.00,0,Wunderground v.1.15,2013-04-12 18:02:00,
2013-04-12 14:07:00,57.8,39.3,29.77,West,276,3.0,16.0,50,0.00,,,0.00,0,Wunderground v.1.15,2013-04-12 18:07:00,
2013-04-12 14:13:00,58.0,40.0,29.77,WNW,285,10.0,11.0,51,0.00,,,0.00,0,Wunderground v.1.15,2013-04-12 18:13:00,
2013-04-12 14:18:00,58.4,39.8,29.77,West,280,14.0,14.0,50,0.00,,,0.00,0,Wunderground v.1.15,2013-04-12 18:18:00,
2013-04-12 14:23:00,58.6,40.0,29.77,West,265,4.0,14.0,50,0.00,,,0.00,0,Wunderground v.1.15,2013-04-12 18:23:00,
2013-04-12 14:28:00,59.0,38.8,29.77,WNW,285,8.0,14.0,47,0.00,,,0.00,0,Wunderground v.1.15,2013-04-12 18:28:00,
2013-04-12 15:27:00,60.5,36.7,29.76,WNW,292,11.0,16.0,41,0.00,,,0.00,0,Wunderground v.1.15,2013-04-12 19:27:00,
2013-04-12 15:32:00,61.2,36.0,29.77,West,275,7.0,8.0,39,0.00,,,0.00,0,Wunderground v.1.15,2013-04-12 19:32:00,
2013-04-12 15:37:00,61.4,36.2,29.77,SW,235,3.0,19.0,39,0.00,,,0.00,0,Wunderground v.1.15,2013-04-12 19:37:00,
2013-04-12 15:42:00,61.5,35.0,29.77,WNW,284,8.0,12.0,37,0.00,,,0.00,0,Wunderground v.1.15,2013-04-12 19:42:00,
2013-04-12 15:47:00,61.6,35.1,29.77,WNW,283,8.0,14.0,37,0.00,,,0.00,0,Wunderground v.1.15,2013-04-12 19:47:00,
2013-04-12 15:52:00,61.9,36.7,29.77,SSE,156,8.0,11.0,39,0.00,,,0.00,0,Wunderground v.1.15,2013-04-12 19:52:00,
2013-04-12 15:57:00,62.1,36.2,29.77,SE,144,7.0,12.0,38,0.00,,,0.00,0,Wunderground v.1.15,2013-04-12 19:57:00,
2013-04-12 16:02:00,62.1,36.8,29.77,SSE,160,1.0,5.0,39,0.00,,,0.00,0,Wunderground v.1.15,2013-04-12 20:02:00,
2013-04-12 16:07:00,61.5,35.6,29.77,West,265,4.0,13.0,38,0.00,,,0.00,0,Wunderground v.1.15,2013-04-12 20:07:00,
2013-04-12 16:13:00,61.4,34.2,29.77,SSW,198,4.0,11.0,36,0.00,,,0.00,0,Wunderground v.1.15,2013-04-12 20:13:00,
2013-04-12 16:17:00,61.4,35.5,29.77,SW,214,2.0,11.0,38,0.00,,,0.00,0,Wunderground v.1.15,2013-04-12 20:17:00,
2013-04-12 16:22:00,61.6,36.4,29.76,West,276,5.0,14.0,39,0.00,,,0.00,0,Wunderground v.1.15,2013-04-12 20:22:00,
2013-04-12 16:28:00,61.3,35.5,29.76,WNW,284,8.0,17.0,38,0.00,,,0.00,0,Wunderground v.1.15,2013-04-12 20:28:00,
2013-04-12 16:33:00,61.2,35.4,29.76,West,278,8.0,19.0,38,0.00,,,0.00,0,Wunderground v.1.15,2013-04-12 20:33:00,
2013-04-12 16:38:00,61.3,36.8,29.77,WNW,287,7.0,19.0,40,0.00,,,0.00,0,Wunderground v.1.15,2013-04-12 20:38:00,
2013-04-12 16:43:00,61.0,36.5,29.76,WNW,288,11.0,14.0,40,0.00,,,0.00,0,Wunderground v.1.15,2013-04-12 20:43:00,
2013-04-12 16:48:00,61.0,37.1,29.77,WNW,285,2.0,14.0,41,0.00,,,0.00,0,Wunderground v.1.15,2013-04-12 20:48:00,
2013-04-12 16:53:00,61.4,36.8,29.77,SSW,206,3.0,10.0,40,0.00,,,0.00,0,Wunderground v.1.15,2013-04-12 20:53:00,
2013-04-12 16:58:00,61.2,36.7,29.77,WNW,289,6.0,6.0,40,0.00,,,0.00,0,Wunderground v.1.15,2013-04-12 20:58:00,
2013-04-12 17:03:00,61.5,36.3,29.77,WNW,283,4.0,11.0,39,0.00,,,0.00,0,Wunderground v.1.15,2013-04-12 21:03:00,
2013-04-12 17:08:00,61.5,35.0,29.78,West,267,6.0,6.0,37,0.00,,,0.00,0,Wunderground v.1.15,2013-04-12 21:08:00,
2013-04-12 17:13:00,61.6,35.7,29.77,WNW,285,15.0,15.0,38,0.00,,,0.00,0,Wunderground v.1.15,2013-04-12 21:13:00,
2013-04-12 17:18:00,61.2,35.4,29.78,West,281,6.0,9.0,38,0.00,,,0.00,0,Wunderground v.1.15,2013-04-12 21:18:00,
2013-04-12 17:23:00,60.2,35.1,29.78,WNW,286,3.0,12.0,39,0.00,,,0.00,0,Wunderground v.1.15,2013-04-12 21:23:00,
2013-04-12 17:28:00,61.1,36.6,29.78,WNW,288,3.0,3.0,40,0.00,,,0.00,0,Wunderground v.1.15,2013-04-12 21:28:00,
2013-04-12 17:34:00,60.4,35.9,29.78,WNW,285,7.0,12.0,40,0.00,,,0.00,0,Wunderground v.1.15,2013-04-12 21:34:00,
2013-04-12 17:39:00,61.1,37.8,29.79,SSE,165,5.0,7.0,42,0.00,,,0.00,0,Wunderground v.1.15,2013-04-12 21:39:00,
2013-04-12 17:44:00,60.7,36.2,29.79,West,279,7.0,11.0,40,0.00,,,0.00,0,Wunderground v.1.15,2013-04-12 21:44:00,
2013-04-12 17:49:00,60.3,35.9,29.79,WNW,292,3.0,7.0,40,0.00,,,0.00,0,Wunderground v.1.15,2013-04-12 21:49:00,
2013-04-12 17:54:00,60.1,36.9,29.80,WNW,287,3.0,14.0,42,0.00,,,0.00,0,Wunderground v.1.15,2013-04-12 21:54:00,
2013-04-12 18:00:00,60.1,35.7,29.80,West,281,8.0,8.0,40,0.00,,,0.00,0,Wunderground v.1.15,2013-04-12 22:00:00,
2013-04-12 18:05:00,60.1,37.5,29.80,West,277,6.0,13.0,43,0.00,,,0.00,0,Wunderground v.1.15,2013-04-12 22:05:00,
2013-04-12 18:10:00,60.0,38.0,29.80,West,278,3.0,7.0,44,0.00,,,0.00,0,Wunderground v.1.15,2013-04-12 22:10:00,
2013-04-12 18:15:00,59.8,36.0,29.80,WNW,282,4.0,13.0,41,0.00,,,0.00,0,Wunderground v.1.15,2013-04-12 22:15:00,
2013-04-12 18:20:00,59.3,36.2,29.80,WNW,284,8.0,9.0,42,0.00,,,0.00,0,Wunderground v.1.15,2013-04-12 22:20:00,
2013-04-12 18:25:00,58.6,36.7,29.81,West,274,3.0,13.0,44,0.00,,,0.00,0,Wunderground v.1.15,2013-04-12 22:25:00,
2013-04-12 18:30:00,57.9,36.7,29.81,West,280,7.0,8.0,45,0.00,,,0.00,0,Wunderground v.1.15,2013-04-12 22:30:00,
2013-04-12 18:35:00,57.4,36.2,29.81,WNW,284,5.0,11.0,45,0.00,,,0.00,0,Wunderground v.1.15,2013-04-12 22:35:00,
2013-04-12 18:40:00,57.1,36.5,29.81,West,280,4.0,14.0,46,0.00,,,0.00,0,Wunderground v.1.15,2013-04-12 22:40:00,
2013-04-12 18:45:00,56.9,36.3,29.82,WNW,288,5.0,14.0,46,0.00,,,0.00,0,Wunderground v.1.15,2013-04-12 22:45:00,
2013-04-12 18:50:00,56.9,36.9,29.81,WNW,282,5.0,9.0,47,0.00,,,0.00,0,Wunderground v.1.15,2013-04-12 22:50:00,
2013-04-12 18:55:00,56.8,36.8,29.82,WNW,285,7.0,11.0,47,0.00,,,0.00,0,Wunderground v.1.15,2013-04-12 22:55:00,
2013-04-12 19:00:00,56.8,36.2,29.82,West,273,6.0,9.0,46,0.00,,,0.00,0,Wunderground v.1.15,2013-04-12 23:00:00,
2013-04-12 19:05:00,56.7,37.2,29.82,West,280,1.0,9.0,48,0.00,,,0.00,0,Wunderground v.1.15,2013-04-12 23:05:00,
2013-04-12 19:10:00,56.7,36.1,29.82,WNW,290,6.0,12.0,46,0.00,,,0.00,0,Wunderground v.1.15,2013-04-12 23:10:00,
2013-04-12 19:15:00,56.7,36.1,29.82,WNW,287,5.0,12.0,46,0.00,,,0.00,0,Wunderground v.1.15,2013-04-12 23:15:00,
2013-04-12 19:20:00,56.6,36.0,29.83,SSW,195,4.0,13.0,46,0.00,,,0.00,0,Wunderground v.1.15,2013-04-12 23:20:00,
2013-04-12 19:25:00,56.5,36.0,29.82,West,281,5.0,13.0,46,0.00,,,0.00,0,Wunderground v.1.15,2013-04-12 23:25:00,
2013-04-12 19:31:00,56.4,35.9,29.83,WNW,283,2.0,6.0,46,0.00,,,0.00,0,Wunderground v.1.15,2013-04-12 23:31:00,
2013-04-12 19:35:00,56.4,35.9,29.83,WNW,283,1.0,7.0,46,0.00,,,0.00,0,Wunderground v.1.15,2013-04-12 23:35:00,
2013-04-12 19:40:00,56.3,36.3,29.82,WNW,286,4.0,5.0,47,0.00,,,0.00,0,Wunderground v.1.15,2013-04-12 23:40:00,
2013-04-12 19:46:00,56.3,35.8,29.83,WNW,298,1.0,10.0,46,0.00,,,0.00,0,Wunderground v.1.15,2013-04-12 23:46:00,
2013-04-12 19:51:00,56.2,35.7,29.83,West,276,5.0,8.0,46,0.00,,,0.00,0,Wunderground v.1.15,2013-04-12 23:51:00,
2013-04-12 19:56:00,56.2,36.2,29.83,WNW,286,2.0,10.0,47,0.00,,,0.00,0,Wunderground v.1.15,2013-04-12 23:56:00,
2013-04-12 20:02:00,56.1,36.1,29.82,WNW,285,4.0,9.0,47,0.00,,,0.00,0,Wunderground v.1.15,2013-04-13 00:02:00,
2013-04-12 20:07:00,56.0,36.6,29.83,WNW,286,4.0,9.0,48,0.00,,,0.00,0,Wunderground v.1.15,2013-04-13 00:07:00,
2013-04-12 20:12:00,56.0,37.6,29.83,WNW,283,1.0,6.0,50,0.00,,,0.00,0,Wunderground v.1.15,2013-04-13 00:12:00,
2013-04-12 20:17:00,55.8,37.4,29.83,WNW,282,3.0,6.0,50,0.00,,,0.00,0,Wunderground v.1.15,2013-04-13 00:17:00,
2013-04-12 20:22:00,55.7,37.3,29.83,WNW,296,3.0,3.0,50,0.00,,,0.00,0,Wunderground v.1.15,2013-04-13 00:22:00,
2013-04-12 20:27:00,55.7,37.3,29.83,WNW,285,0.0,5.0,50,0.00,,,0.00,0,Wunderground v.1.15,2013-04-13 00:27:00,
2013-04-12 20:32:00,55.7,36.3,29.83,WNW,285,3.0,7.0,48,0.00,,,0.00,0,Wunderground v.1.15,2013-04-13 00:32:00,
2013-04-12 20:37:00,55.7,36.8,29.83,WNW,286,1.0,7.0,49,0.00,,,0.00,0,Wunderground v.1.15,2013-04-13 00:37:00,
2013-04-12 20:42:00,55.6,37.7,29.84,WNW,287,3.0,5.0,51,0.00,,,0.00,0,Wunderground v.1.15,2013-04-13 00:42:00,
2013-04-12 20:47:00,55.5,37.7,29.84,West,266,1.0,6.0,51,0.00,,,0.00,0,Wunderground v.1.15,2013-04-13 00:47:00,
2013-04-12 20:52:00,55.5,37.1,29.84,West,275,3.0,7.0,50,0.00,,,0.00,0,Wunderground v.1.15,2013-04-13 00:52:00,
2013-04-12 20:57:00,55.5,36.6,29.84,WNW,284,6.0,7.0,49,0.00,,,0.00,0,Wunderground v.1.15,2013-04-13 00:57:00,
2013-04-12 21:02:00,55.5,37.1,29.85,West,277,1.0,7.0,50,0.00,,,0.00,0,Wunderground v.1.15,2013-04-13 01:02:00,
2013-04-12 21:07:00,55.5,36.6,29.85,WNW,284,5.0,8.0,49,0.00,,,0.00,0,Wunderground v.1.15,2013-04-13 01:07:00,
2013-04-12 21:12:00,55.4,37.1,29.85,West,278,0.0,4.0,50,0.00,,,0.00,0,Wunderground v.1.15,2013-04-13 01:12:00,
2013-04-12 21:17:00,55.3,36.5,29.85,WNW,286,5.0,9.0,49,0.00,,,0.00,0,Wunderground v.1.15,2013-04-13 01:17:00,
2013-04-12 21:22:00,55.3,37.0,29.85,West,281,1.0,2.0,50,0.00,,,0.00,0,Wunderground v.1.15,2013-04-13 01:22:00,
2013-04-12 21:27:00,55.3,37.0,29.85,West,279,1.0,8.0,50,0.00,,,0.00,0,Wunderground v.1.15,2013-04-13 01:27:00,
2013-04-12 21:33:00,55.2,36.9,29.85,South,172,2.0,4.0,50,0.00,,,0.00,0,Wunderground v.1.15,2013-04-13 01:33:00,
2013-04-12 21:38:00,55.0,37.7,29.86,West,271,6.0,6.0,52,0.00,,,0.00,0,Wunderground v.1.15,2013-04-13 01:38:00,
2013-04-12 21:43:00,55.0,37.7,29.86,WNW,288,0.0,4.0,52,0.00,,,0.00,0,Wunderground v.1.15,2013-04-13 01:43:00,
2013-04-12 21:49:00,55.0,36.7,29.86,WNW,282,9.0,9.0,50,0.00,,,0.00,0,Wunderground v.1.15,2013-04-13 01:49:00,
2013-04-12 21:54:00,55.1,37.3,29.86,West,263,8.0,8.0,51,0.00,,,0.00,0,Wunderground v.1.15,2013-04-13 01:54:00,
2013-04-12 21:59:00,55.1,36.8,29.86,North,353,2.0,12.0,50,0.00,,,0.00,0,Wunderground v.1.15,2013-04-13 01:59:00,
2013-04-12 22:04:00,55.1,37.3,29.87,WNW,284,8.0,8.0,51,0.00,,,0.00,0,Wunderground v.1.15,2013-04-13 02:04:00,
2013-04-12 22:09:00,55.0,37.2,29.87,West,277,3.0,8.0,51,0.00,,,0.00,0,Wunderground v.1.15,2013-04-13 02:09:00,
2013-04-12 22:14:00,54.9,37.1,29.87,WNW,294,5.0,7.0,51,0.00,,,0.00,0,Wunderground v.1.15,2013-04-13 02:14:00,
2013-04-12 22:19:00,54.9,38.1,29.87,West,280,3.0,8.0,53,0.00,,,0.00,0,Wunderground v.1.15,2013-04-13 02:19:00,
2013-04-12 22:24:00,54.8,38.5,29.87,West,276,2.0,8.0,54,0.00,,,0.00,0,Wunderground v.1.15,2013-04-13 02:24:00,
2013-04-12 22:29:00,54.6,37.8,29.88,West,276,7.0,7.0,53,0.00,,,0.00,0,Wunderground v.1.15,2013-04-13 02:29:00,
2013-04-12 22:36:00,54.6,37.8,29.87,WNW,293,3.0,10.0,53,0.00,,,0.00,0,Wunderground v.1.15,2013-04-13 02:36:00,
2013-04-12 22:41:00,54.5,37.2,29.88,SW,220,2.0,11.0,52,0.00,,,0.00,0,Wunderground v.1.15,2013-04-13 02:41:00,
2013-04-12 22:47:00,54.5,37.7,29.87,West,274,4.0,11.0,53,0.00,,,0.00,0,Wunderground v.1.15,2013-04-13 02:47:00,
2013-04-12 22:52:00,54.4,38.1,29.88,WNW,286,5.0,5.0,54,0.00,,,0.00,0,Wunderground v.1.15,2013-04-13 02:52:00,
2013-04-12 22:57:00,54.3,37.5,29.88,SW,221,1.0,9.0,53,0.00,,,0.00,0,Wunderground v.1.15,2013-04-13 02:57:00,
2013-04-12 23:02:00,54.2,38.8,29.89,WNW,287,1.0,12.0,56,0.00,,,0.00,0,Wunderground v.1.15,2013-04-13 03:02:00,
2013-04-12 23:07:00,54.2,38.4,29.89,WNW,289,5.0,12.0,55,0.00,,,0.00,0,Wunderground v.1.15,2013-04-13 03:07:00,
2013-04-12 23:12:00,54.1,38.3,29.89,NW,314,4.0,11.0,55,0.00,,,0.00,0,Wunderground v.1.15,2013-04-13 03:12:00,
2013-04-12 23:17:00,53.7,38.4,29.90,WNW,295,3.0,11.0,56,0.00,,,0.00,0,Wunderground v.1.15,2013-04-13 03:17:00,
2013-04-12 23:22:00,53.1,38.3,29.90,WNW,288,3.0,9.0,57,0.00,,,0.00,0,Wunderground v.1.15,2013-04-13 03:22:00,
2013-04-12 23:27:00,52.6,38.2,29.90,WNW,293,3.0,9.0,58,0.00,,,0.00,0,Wunderground v.1.15,2013-04-13 03:27:00,
2013-04-12 23:32:00,52.1,37.8,29.90,WNW,301,5.0,9.0,58,0.00,,,0.00,0,Wunderground v.1.15,2013-04-13 03:32:00,
2013-04-12 23:37:00,51.7,37.8,29.91,WNW,302,1.0,9.0,59,0.00,,,0.00,0,Wunderground v.1.15,2013-04-13 03:37:00,
2013-04-12 23:42:00,51.5,37.6,29.91,West,272,6.0,8.0,59,0.00,,,0.00,0,Wunderground v.1.15,2013-04-13 03:42:00,
2013-04-12 23:47:00,51.2,37.4,29.91,WNW,298,2.0,11.0,59,0.00,,,0.00,0,Wunderground v.1.15,2013-04-13 03:47:00,
2013-04-12 23:52:00,51.1,37.3,29.91,WNW,293,3.0,5.0,59,0.00,,,0.00,0,Wunderground v.1.15,2013-04-13 03:52:00,
2013-04-12 23:57:00,50.9,37.1,29.91,WNW,284,3.0,6.0,59,0.00,,,0.00,0,Wunderground v.1.15,2013-04-13 03:57:00,